DW9408 Weather Reports


Display with metric or nautical units.
time (UTC)temp
F
wind
direction
speed
MPH
gust
MPH
rain 1hr
in
rain 24hr
in
rain mn
in
humidity
%
barometer
mb
20260506131911 66 242 4.0 13.0 0.00 0.00 0.00 79 1013.2
20260506131405 66 165 3.0 9.0 0.00 0.00 0.00 80 1013.2
20260506130859 66 211 3.0 9.0 0.00 0.00 0.00 80 1013.3
20260506130353 66 229 3.0 10.0 0.00 0.00 0.00 82 1013.3
20260506125850 65 208 3.0 10.0 0.00 0.00 0.00 82 1013.1
20260506125341 65 180 1.0 7.0 0.00 0.00 0.00 83 1013.2
20260506124836 65 193 1.0 6.0 0.00 0.00 0.00 83 1012.9
20260506124328 65 199 2.0 7.0 0.00 0.00 0.00 84 1013.0
20260506123823 64 182 0.0 7.0 0.00 0.00 0.00 84 1012.9
20260506123316 64 231 1.0 5.0 0.00 0.00 0.00 85 1013.1
20260506122810 64 231 1.0 5.0 0.00 0.00 0.00 85 1012.9
20260506122306 63 227 0.0 5.0 0.00 0.00 0.00 87 1012.9
20260506121759 63 193 0.0 4.0 0.00 0.00 0.00 87 1012.7
20260506121253 63 180 0.0 0.0 0.00 0.00 0.00 89 1012.7
20260506120747 62 180 0.0 0.0 0.00 0.00 0.00 89 1012.8
20260506120241 62 180 0.0 0.0 0.00 0.00 0.00 90 1012.8
20260506115735 62 178 0.0 0.0 0.00 0.00 0.00 91 1012.8
20260506115229 61 177 0.0 1.0 0.00 0.00 0.00 92 1013.0
20260506114729 61 177 0.0 1.0 0.00 0.00 0.00 92 1013.3
20260506114229 61 177 0.0 0.0 0.00 0.00 0.00 92 1013.6
20260506113729 60 177 0.0 0.0 0.00 0.00 0.00 92 1013.8
20260506113227 60 175 0.0 0.0 0.00 0.00 0.00 92 1013.6
20260506112223 60 173 0.0 0.0 0.00 0.00 0.00 90 1013.4
20260506111725 60 173 0.0 0.0 0.00 0.00 0.00 90 1013.2
20260506111224 60 173 0.0 0.0 0.00 0.00 0.00 90 1013.1
20260506110723 60 173 0.0 0.0 0.00 0.00 0.00 90 1012.9
20260506110228 60 173 0.0 0.0 0.00 0.00 0.00 88 1012.8
20260506105955 61 173 0.0 0.0 0.00 0.00 0.00 88 1012.7
20260506105227 61 173 0.0 0.0 0.00 0.00 0.00 88 1012.8
20260506104725 61 173 0.0 0.0 0.00 0.00 0.00 88 1012.7
20260506104222 61 173 0.0 0.0 0.00 0.00 0.00 87 1012.6
20260506103723 62 173 0.0 0.0 0.00 0.00 0.00 86 1012.7
20260506103222 62 173 0.0 0.0 0.00 0.00 0.00 85 1012.6
20260506102953 62 173 0.0 0.0 0.00 0.00 0.00 84 1012.6
20260506102219 63 173 0.0 0.0 0.00 0.00 0.00 84 1012.4
20260506101720 63 182 0.0 4.0 0.00 0.00 0.00 84 1012.2
20260506101219 63 182 1.0 6.0 0.00 0.00 0.00 83 1011.9
20260506100720 63 195 1.0 6.0 0.00 0.00 0.00 83 1011.9
20260506100220 63 194 1.0 6.0 0.00 0.00 0.00 83 1011.9
20260506095721 63 182 1.0 7.0 0.00 0.00 0.00 83 1012.2
20260506095220 63 194 1.0 7.0 0.00 0.00 0.00 83 1012.2
20260506094719 63 167 0.0 4.0 0.00 0.00 0.00 83 1012.1
20260506094451 63 205 0.0 4.0 0.00 0.00 0.00 83 1012.3
20260506093720 63 205 0.0 4.0 0.00 0.00 0.00 83 1012.4
20260506093220 63 206 1.0 5.0 0.00 0.00 0.00 83 1012.2
20260506092720 63 206 1.0 7.0 0.00 0.00 0.00 83 1012.3
20260506092219 63 190 1.0 7.0 0.00 0.00 0.00 83 1012.3
20260506091721 63 222 0.0 3.0 0.00 0.00 0.00 84 1012.4
20260506091217 63 230 0.0 5.0 0.00 0.00 0.00 85 1012.3
20260506090948 62 210 1.0 5.0 0.00 0.00 0.00 85 1012.2
20260506090217 62 195 0.0 5.0 0.00 0.00 0.00 85 1012.3
20260506085721 62 199 0.0 2.0 0.00 0.00 0.00 85 1012.1
20260506084946 62 188 0.0 5.0 0.00 0.00 0.00 84 1012.5
20260506084209 62 193 0.0 0.0 0.00 0.00 0.00 84 1012.6
20260506083703 62 194 0.0 5.0 0.00 0.00 0.00 84 1012.5
20260506083427 62 194 0.0 5.0 0.00 0.00 0.00 85 1012.6
20260506082651 62 224 0.0 5.0 0.00 0.00 0.00 84 1012.5
20260506082145 62 198 0.0 3.0 0.00 0.00 0.00 85 1012.5
20260506081650 61 196 0.0 4.0 0.00 0.00 0.00 86 1012.7
20260506081412 61 180 0.0 3.0 0.00 0.00 0.00 87 1012.6
20260506080626 60 204 0.0 0.0 0.00 0.00 0.00 86 1012.7
20260506080120 61 204 0.0 4.0 0.00 0.00 0.00 86 1012.9
20260506073045 59 205 0.0 0.0 0.00 0.00 0.00 88 1012.7
20260506072539 59 205 0.0 0.0 0.00 0.00 0.00 87 1012.7
20260506072033 60 205 0.0 0.0 0.00 0.00 0.00 86 1012.7
20260506071526 60 205 0.0 0.0 0.00 0.00 0.00 86 1012.7
20260506071251 60 205 0.0 0.0 0.00 0.00 0.00 86 1012.8
20260506070746 60 205 0.0 0.0 0.00 0.00 0.00 86 1012.6
20260506062426 64 241 0.0 3.0 0.00 0.00 0.00 79 1012.8
20260506061921 64 245 0.0 5.0 0.00 0.00 0.00 79 1012.9
20260506061415 63 203 0.0 5.0 0.00 0.00 0.00 79 1012.9
20260506060909 63 229 0.0 3.0 0.00 0.00 0.00 81 1012.9
20260506060403 62 223 0.0 4.0 0.00 0.00 0.00 82 1012.7
20260506051302 54 181 0.0 0.0 0.00 0.00 0.00 92 1013.3
20260506050756 54 181 0.0 0.0 0.00 0.00 0.00 91 1013.4
20260506050250 54 181 0.0 0.0 0.00 0.00 0.00 91 1013.5
20260506045004 54 181 0.0 0.0 0.00 0.00 0.00 91 1013.2
20260506044227 54 181 0.0 0.0 0.00 0.00 0.00 91 1012.9
20260506043720 54 181 0.0 0.0 0.00 0.00 0.00 90 1012.9
20260506043216 54 181 0.0 0.0 0.00 0.00 0.00 90 1013.0
20260506042708 54 181 0.0 0.0 0.00 0.00 0.00 90 1013.0
20260506042202 55 181 0.0 0.0 0.00 0.00 0.00 90 1012.8
20260506041656 55 181 0.0 0.0 0.00 0.00 0.00 89 1012.7
20260506041150 55 181 0.0 0.0 0.00 0.00 0.00 89 1012.8
20260506040644 55 181 0.0 0.0 0.00 0.00 0.00 89 1012.9
20260506040139 55 181 0.0 0.0 0.00 0.00 0.00 88 1012.9
20260506035634 56 181 0.0 0.0 0.00 0.00 0.00 87 1012.9
20260506035358 56 181 0.0 0.0 0.00 0.00 0.00 87 1012.9
20260506034852 56 181 0.0 0.0 0.00 0.00 0.00 87 1012.9
20260506034344 56 181 0.0 0.0 0.00 0.00 0.00 87 1013.0
20260506033606 56 181 0.0 0.0 0.00 0.00 0.00 86 1013.0
20260506033101 56 181 0.0 0.0 0.00 0.00 0.00 86 1013.0
20260506032826 57 181 0.0 0.0 0.00 0.00 0.00 86 1013.0
20260506032319 57 181 0.0 0.0 0.00 0.00 0.00 85 1013.0
20260506031543 57 181 0.0 0.0 0.00 0.00 0.00 85 1013.1
20260506031036 57 181 0.0 0.0 0.00 0.00 0.00 85 1013.2
20260506030808 57 181 0.0 0.0 0.00 0.00 0.00 84 1013.3
20260506030033 57 181 0.0 0.0 0.00 0.00 0.00 84 1013.3
20260506025805 58 181 0.0 0.0 0.00 0.00 0.00 84 1013.2
20260506025031 58 181 0.0 0.0 0.00 0.00 0.00 84 1013.1
20260506024534 58 181 0.0 0.0 0.00 0.00 0.00 83 1013.1
20260506024306 58 181 0.0 0.0 0.00 0.00 0.00 83 1013.1
20260506023534 58 181 0.0 0.0 0.00 0.00 0.00 82 1013.0
20260506023035 58 181 0.0 0.0 0.00 0.00 0.00 82 1012.9
20260506022534 59 181 0.0 0.0 0.00 0.00 0.00 80 1013.0
20260506022036 59 181 0.0 0.0 0.00 0.00 0.00 79 1012.9
20260506021530 60 181 0.0 0.0 0.00 0.00 0.00 79 1012.7
20260506021030 60 181 0.0 0.0 0.00 0.00 0.00 77 1012.8
20260506020531 60 181 0.0 0.0 0.00 0.00 0.00 78 1012.7
20260506020029 61 181 0.0 0.0 0.00 0.00 0.00 78 1012.8
20260506015529 61 181 0.0 0.0 0.00 0.00 0.00 77 1012.9
20260506015028 62 181 0.0 0.0 0.00 0.00 0.00 75 1012.9
20260506014529 62 181 0.0 0.0 0.00 0.00 0.00 75 1012.9
20260506014029 63 181 0.0 0.0 0.00 0.00 0.00 74 1012.9
20260506013529 64 181 0.0 0.0 0.00 0.00 0.00 71 1012.9
20260506013023 64 181 0.0 0.0 0.00 0.00 0.00 70 1012.8
20260506012524 64 181 0.0 0.0 0.00 0.00 0.00 71 1012.9
20260506012023 65 181 0.0 0.0 0.00 0.00 0.00 69 1012.8
20260506011524 65 181 0.0 0.0 0.00 0.00 0.00 68 1012.7
20260506011025 66 181 0.0 0.0 0.00 0.00 0.00 67 1012.8
20260506010525 66 181 0.0 0.0 0.00 0.00 0.00 64 1012.7
20260506010023 67 181 0.0 0.0 0.00 0.00 0.00 62 1012.7
20260506005523 67 181 0.0 0.0 0.00 0.00 0.00 62 1012.5
20260506005257 68 181 0.0 0.0 0.00 0.00 0.00 62 1012.6
20260506004523 68 181 0.0 0.0 0.00 0.00 0.00 62 1012.5
20260506004254 69 181 0.0 0.0 0.00 0.00 0.00 60 1012.5
20260506003755 69 181 0.0 0.0 0.00 0.00 0.00 58 1012.5
20260506003026 70 181 0.0 0.0 0.00 0.00 0.00 55 1012.6
20260506002520 71 181 0.0 0.0 0.00 0.00 0.00 54 1012.5
20260506001508 72 181 0.0 0.0 0.00 0.00 0.00 52 1012.5
20260506001002 73 201 0.0 3.0 0.00 0.00 0.00 50 1012.6
20260506000457 73 199 0.0 3.0 0.00 0.00 0.00 50 1012.6
20260505235952 73 204 0.0 4.0 0.00 0.00 0.00 50 1012.6
20260505235444 73 205 0.0 4.0 0.00 0.00 0.00 50 1012.5
20260505234938 74 216 0.0 0.0 0.00 0.00 0.00 49 1012.6
20260505234703 74 215 0.0 2.0 0.00 0.00 0.00 48 1012.5
20260505233927 74 215 0.0 4.0 0.00 0.00 0.00 48 1012.5
20260505233652 75 212 0.0 4.0 0.00 0.00 0.00 47 1012.4
20260505232914 75 215 0.0 4.0 0.00 0.00 0.00 46 1012.4
20260505232408 76 200 1.0 8.0 0.00 0.00 0.00 46 1012.4
20260505231902 75 215 1.0 11.0 0.00 0.00 0.00 45 1012.5
20260505231357 76 205 1.0 10.0 0.00 0.00 0.00 45 1012.4
20260505230850 76 194 1.0 11.0 0.00 0.00 0.00 45 1012.4
20260505225838 77 181 3.0 13.0 0.00 0.00 0.00 44 1012.3
20260505225333 77 228 1.0 12.0 0.00 0.00 0.00 44 1012.5
20260505224826 77 194 1.0 12.0 0.00 0.00 0.00 44 1012.5
20260505224320 77 200 2.0 12.0 0.00 0.00 0.00 43 1012.5
20260505223309 78 266 2.0 11.0 0.00 0.00 0.00 44 1012.4
20260505222802 78 207 1.0 8.0 0.00 0.00 0.00 43 1012.5
20260505222256 78 190 2.0 12.0 0.00 0.00 0.00 44 1012.6
20260505221751 77 194 3.0 12.0 0.00 0.00 0.00 43 1012.6
20260505221245 77 232 2.0 9.0 0.00 0.00 0.00 44 1012.6
20260505221010 77 187 2.0 9.0 0.00 0.00 0.00 44 1012.5
20260505220233 77 224 2.0 12.0 0.00 0.00 0.00 45 1012.5
20260505215958 77 230 3.0 15.0 0.00 0.00 0.00 43 1012.5
20260505215220 77 237 2.0 15.0 0.00 0.00 0.00 45 1012.5
20260505214714 77 233 2.0 15.0 0.00 0.00 0.00 45 1012.6
20260505214209 78 212 3.0 15.0 0.00 0.00 0.00 43 1012.6
20260505213702 78 222 2.0 12.0 0.00 0.00 0.00 43 1012.6
20260505213156 78 225 1.0 7.0 0.00 0.00 0.00 42 1012.6
20260505212650 78 217 1.0 13.0 0.00 0.00 0.00 44 1012.6
20260505212144 78 202 2.0 13.0 0.00 0.00 0.00 43 1012.6
20260505211638 78 167 2.0 13.0 0.00 0.00 0.00 44 1012.8
20260505211404 78 203 2.0 14.0 0.00 0.00 0.00 44 1012.8
20260505210627 77 207 4.0 15.0 0.00 0.00 0.00 42 1012.9
20260505210120 78 269 3.0 15.0 0.00 0.00 0.00 43 1013.0
20260505205615 78 175 1.0 11.0 0.00 0.00 0.00 43 1012.9
20260505205108 78 200 2.0 11.0 0.00 0.00 0.00 43 1012.9
20260505204603 78 288 3.0 13.0 0.00 0.00 0.00 43 1013.0
20260505204056 78 226 4.0 13.0 0.00 0.00 0.00 41 1013.1
20260505203551 78 175 3.0 9.0 0.00 0.00 0.00 44 1013.0
20260505203045 78 163 2.0 10.0 0.00 0.00 0.00 43 1013.2
20260505202539 77 173 2.0 10.0 0.00 0.00 0.00 43 1013.1
20260505202032 77 184 2.0 10.0 0.00 0.00 0.00 43 1013.3
20260505201527 77 215 2.0 11.0 0.00 0.00 0.00 42 1013.3
20260505201020 78 219 3.0 11.0 0.00 0.00 0.00 44 1013.4
20260505200512 77 189 3.0 12.0 0.00 0.00 0.00 41 1013.4
20260505200011 77 211 2.0 12.0 0.00 0.00 0.00 44 1013.6
20260505195510 78 184 1.0 8.0 0.00 0.00 0.00 41 1013.7
20260505195011 77 175 2.0 11.0 0.00 0.00 0.00 41 1013.7
20260505194510 77 236 4.0 14.0 0.00 0.00 0.00 43 1013.7
20260505194011 77 186 4.0 14.0 0.00 0.00 0.00 40 1013.8
20260505193511 77 242 4.0 16.0 0.00 0.00 0.00 39 1014.0
20260505193012 77 202 5.0 17.0 0.00 0.00 0.00 39 1014.1
20260505192512 77 232 4.0 17.0 0.00 0.00 0.00 44 1014.2
20260505192011 77 142 3.0 16.0 0.00 0.00 0.00 41 1014.0
20260505191512 77 223 4.0 12.0 0.00 0.00 0.00 40 1014.1
20260505191006 77 209 4.0 18.0 0.00 0.00 0.00 42 1014.1
20260505190506 77 292 3.0 18.0 0.00 0.00 0.00 40 1014.1
20260505190006 77 195 3.0 13.0 0.00 0.00 0.00 43 1014.2
20260505185737 77 208 2.0 12.0 0.00 0.00 0.00 43 1014.3
20260505185006 77 178 2.0 13.0 0.00 0.00 0.00 43 1014.3
20260505184507 77 194 4.0 18.0 0.00 0.00 0.00 44 1014.4
20260505183507 78 242 2.0 15.0 0.00 0.00 0.00 43 1014.4
20260505183008 78 177 3.0 13.0 0.00 0.00 0.00 45 1014.6
20260505182503 77 355 4.0 21.0 0.00 0.00 0.00 43 1014.6
20260505182002 77 74 5.0 21.0 0.00 0.00 0.00 43 1014.7
20260505181503 77 184 4.0 17.0 0.00 0.00 0.00 43 1014.8
20260505181002 77 227 2.0 13.0 0.00 0.00 0.00 43 1014.8
20260505180500 77 219 2.0 12.0 0.00 0.00 0.00 44 1015.0
20260505180000 76 261 3.0 14.0 0.00 0.00 0.00 42 1015.1
20260505175459 77 217 3.0 20.0 0.00 0.00 0.00 42 1015.2
20260505174959 77 197 2.0 20.0 0.00 0.00 0.00 42 1015.2
20260505174728 77 250 3.0 14.0 0.00 0.00 0.00 45 1015.1
20260505173957 76 259 3.0 14.0 0.00 0.00 0.00 44 1015.3
20260505173456 76 266 3.0 17.0 0.00 0.00 0.00 46 1015.4
20260505172958 76 256 4.0 17.0 0.00 0.00 0.00 45 1015.4
20260505172457 76 219 4.0 16.0 0.00 0.00 0.00 44 1015.4
20260505171956 76 52 3.0 15.0 0.00 0.00 0.00 44 1015.3
20260505171451 76 247 4.0 15.0 0.00 0.00 0.00 44 1015.4
20260505170946 76 250 4.0 15.0 0.00 0.00 0.00 45 1015.2
20260505170439 76 276 3.0 14.0 0.00 0.00 0.00 47 1015.3
20260505165932 75 279 4.0 17.0 0.00 0.00 0.00 46 1015.4
20260505165427 74 216 5.0 17.0 0.00 0.00 0.00 45 1015.4
20260505164920 75 199 4.0 14.0 0.00 0.00 0.00 45 1015.3
20260505164414 74 208 4.0 14.0 0.00 0.00 0.00 47 1015.2
20260505163909 74 240 5.0 15.0 0.00 0.00 0.00 47 1015.3
20260505163635 74 188 4.0 15.0 0.00 0.00 0.00 49 1015.4
20260505162857 74 259 3.0 13.0 0.00 0.00 0.00 49 1015.3
20260505162351 74 180 3.0 11.0 0.00 0.00 0.00 51 1015.3
20260505161844 74 227 3.0 16.0 0.00 0.00 0.00 51 1015.6
20260505161339 73 202 4.0 16.0 0.00 0.00 0.00 51 1015.6
20260505160833 73 180 4.0 13.0 0.00 0.00 0.00 50 1015.6
20260505160327 73 192 4.0 15.0 0.00 0.00 0.00 50 1015.6
20260505153252 71 220 3.0 12.0 0.00 0.00 0.00 55 1016.1
20260505152744 71 230 4.0 12.0 0.00 0.00 0.00 54 1016.1
20260505152239 71 226 3.0 11.0 0.00 0.00 0.00 56 1016.3
20260505151733 71 217 3.0 11.0 0.00 0.00 0.00 53 1016.3
20260505151226 70 219 4.0 11.0 0.00 0.00 0.00 57 1016.3
20260505150720 70 165 3.0 11.0 0.00 0.00 0.00 57 1016.4
20260505150215 70 192 1.0 9.0 0.00 0.00 0.00 60 1016.4
20260505140609 66 202 1.0 6.0 0.00 0.00 0.00 64 1016.0